,,Stat5,,Stat1,,Stat2,,Stat3,,Stat4,,Wind1,,Wind1,
time,status,PA1M_AVG,status,PR1M_SUM,status,RH1M_AVG,status,SR1M_AVG,status,TA1M_AVG,status,W1dAve1m,status,W1sAve1m,
2002-04-01, 00:00:00,VALID,920.352,VALID,0,VALID,98.4959,VALID,0,VALID,20.4253,VALID,328,VALID,0.0711571,
2002-04-01, 00:01:00,VALID,920.338,VALID,0,VALID,98.4769,VALID,0,VALID,20.4286,VALID,18,VALID,0.899054,
2002-04-01, 00:02:00,VALID,920.346,VALID,0,VALID,98.4794,VALID,0,VALID,20.4315,VALID,12,VALID,0.746299,
2002-04-01, 00:03:00,VALID,920.336,VALID,0,VALID,98.5303,VALID,0,VALID,20.4477,VALID,21,VALID,0.668269,
2002-04-01, 00:04:00,VALID,920.329,VALID,0,VALID,98.4858,VALID,-0.0169808,VALID,20.4482,VALID,17,VALID,0.68935,
2002-04-01, 00:05:00,VALID,920.325,VALID,0,VALID,98.4349,VALID,0.0169808,VALID,20.4216,VALID,17,VALID,0.552787,
2002-04-01, 00:06:00,VALID,920.311,VALID,0,VALID,98.4642,VALID,0.0339617,VALID,20.4251,VALID,13,VALID,0.280869,
2002-04-01, 00:07:00,VALID,920.306,VALID,0,VALID,98.4235,VALID,0.0339617,VALID,20.4124,VALID,353,VALID,0.0960938,
2002-04-01, 00:08:00,VALID,920.297,VALID,0,VALID,98.3599,VALID,0,VALID,20.3597,VALID,294,VALID,0.414463,
2002-04-01, 00:09:00,VALID,920.289,VALID,0,VALID,98.4387,VALID,0,VALID,20.3793,VALID,29,VALID,0.619196,
2002-04-01, 00:10:00,VALID,920.279,VALID,0,VALID,98.384,VALID,0.0169808,VALID,20.3826,VALID,35,VALID,0.809961,
2002-04-01, 00:11:00,VALID,920.261,VALID,0,VALID,98.3205,VALID,-0.0339617,VALID,20.3645,VALID,48,VALID,0.615017,
2002-04-01, 00:12:00,VALID,920.254,VALID,0,VALID,98.3217,VALID,-0.0679233,VALID,20.3647,VALID,55,VALID,0.64605,
2002-04-01, 00:13:00,VALID,920.239,VALID,0,VALID,98.3472,VALID,-0.0849042,VALID,20.3685,VALID,46,VALID,0.778045,
2002-04-01, 00:14:00,VALID,920.24,VALID,0,VALID,98.3192,VALID,-0.101885,VALID,20.3655,VALID,39,VALID,0.664063,
2002-04-01, 00:15:00,VALID,920.227,VALID,0,VALID,98.281,VALID,-0.101885,VALID,20.3617,VALID,56,VALID,0.768092,
2002-04-01, 00:16:00,VALID,920.204,VALID,0,VALID,98.2671,VALID,-0.101885,VALID,20.3491,VALID,61,VALID,0.713894,
2002-04-01, 00:17:00,VALID,920.202,VALID,0,VALID,98.1615,VALID,-0.0849042,VALID,20.3426,VALID,69,VALID,0.73546,
2002-04-01, 00:18:00,VALID,920.21,VALID,0,VALID,98.1895,VALID,-0.0679233,VALID,20.326,VALID,60,VALID,0.653294,
2002-04-01, 00:19:00,VALID,920.216,VALID,0,VALID,98.2162,VALID,-0.101885,VALID,20.3426,VALID,51,VALID,0.563528,
2002-04-01, 00:20:00,VALID,920.208,VALID,0,VALID,98.2404,VALID,-0.118866,VALID,20.3389,VALID,47,VALID,0.599359,
2002-04-01, 00:21:00,VALID,920.212,VALID,0,VALID,98.2302,VALID,-0.101885,VALID,20.3625,VALID,47,VALID,0.624599,
2002-04-01, 00:22:00,VALID,920.203,VALID,0,VALID,98.2353,VALID,-0.0849042,VALID,20.3588,VALID,39,VALID,0.617188,
2002-04-01, 00:23:00,VALID,920.192,VALID,0,VALID,98.2505,VALID,-0.101885,VALID,20.361,VALID,39,VALID,0.569901,
2002-04-01, 00:24:00,VALID,920.179,VALID,0,VALID,98.2276,VALID,-0.0849042,VALID,20.372,VALID,28,VALID,0.612179,
2002-04-01, 00:25:00,VALID,920.158,VALID,0,VALID,98.1323,VALID,-0.0849042,VALID,20.3496,VALID,41,VALID,0.76222,
2002-04-01, 00:26:00,VALID,920.133,VALID,0,VALID,98.0979,VALID,-0.101885,VALID,20.3235,VALID,41,VALID,0.397978,
2002-04-01, 00:27:00,VALID,920.106,VALID,0,VALID,98.1437,VALID,-0.0679233,VALID,20.3066,VALID,41,VALID,0.0608553,
2002-04-01, 00:28:00,VALID,920.091,VALID,0,VALID,98.234,VALID,-0.101885,VALID,20.3297,VALID,41,VALID,0.0477196,
2002-04-01, 00:29:00,VALID,920.078,VALID,0,VALID,98.2315,VALID,-0.0679233,VALID,20.3391,VALID,41,VALID,0.367188,
2002-04-01, 00:30:00,VALID,920.06,VALID,0.2,VALID,98.1933,VALID,-0.101885,VALID,20.3458,VALID,41,VALID,0.408203,
2002-04-01, 00:31:00,VALID,920.041,VALID,0,VALID,98.2073,VALID,-0.0679233,VALID,20.3391,VALID,41,VALID,0.351768,
2002-04-01, 00:32:00,VALID,920.017,VALID,0,VALID,98.2429,VALID,-0.0679233,VALID,20.3458,VALID,44,VALID,0.558699,
2002-04-01, 00:33:00,VALID,920.013,VALID,0,VALID,98.1844,VALID,-0.101885,VALID,20.3464,VALID,53,VALID,0.69308,
2002-04-01, 00:34:00,VALID,920.001,VALID,0,VALID,98.1704,VALID,-0.101885,VALID,20.3332,VALID,57,VALID,0.664063,
2002-04-01, 00:35:00,VALID,919.98,VALID,0,VALID,98.1513,VALID,-0.0849042,VALID,20.3101,VALID,72,VALID,0.574219,
2002-04-01, 00:36:00,VALID,919.982,VALID,0,VALID,98.0941,VALID,-0.0679233,VALID,20.3073,VALID,95,VALID,0.715545,
2002-04-01, 00:37:00,VALID,919.958,VALID,0,VALID,98.0687,VALID,-0.0849042,VALID,20.2745,VALID,101,VALID,0.546484,
2002-04-01, 00:38:00,VALID,919.947,VALID,0,VALID,98.0852,VALID,-0.0849042,VALID,20.2653,VALID,101,VALID,0.335938,
2002-04-01, 00:39:00,VALID,919.938,VALID,0,VALID,98.1068,VALID,-0.0849042,VALID,20.2489,VALID,102,VALID,0.254645,
2002-04-01, 00:40:00,VALID,919.921,VALID,0,VALID,98.1526,VALID,-0.0679233,VALID,20.2489,VALID,103,VALID,0.148438,
2002-04-01, 00:41:00,VALID,919.893,VALID,0,VALID,98.2111,VALID,-0.0849042,VALID,20.2459,VALID,103,VALID,0.00641026,
2002-04-01, 00:42:00,VALID,919.862,VALID,0,VALID,98.2035,VALID,-0.0509425,VALID,20.2584,VALID,102,VALID,0.455529,
2002-04-01, 00:43:00,VALID,919.839,VALID,0,VALID,98.1844,VALID,-0.101885,VALID,20.2686,VALID,86,VALID,0.420982,
2002-04-01, 00:44:00,VALID,919.82,VALID,0,VALID,98.1564,VALID,-0.0679233,VALID,20.2556,VALID,96,VALID,0.556207,
2002-04-01, 00:45:00,VALID,919.794,VALID,0,VALID,98.1501,VALID,-0.0849042,VALID,20.2452,VALID,105,VALID,0.701172,
2002-04-01, 00:46:00,VALID,919.771,VALID,0,VALID,98.1552,VALID,-0.101885,VALID,20.2263,VALID,116,VALID,0.799479,
2002-04-01, 00:47:00,VALID,919.752,VALID,0,VALID,98.2289,VALID,-0.0849042,VALID,20.239,VALID,130,VALID,0.483742,
2002-04-01, 00:48:00,VALID,919.736,VALID,0,VALID,98.2276,VALID,-0.101885,VALID,20.2559,VALID,158,VALID,0.924959,
2002-04-01, 00:49:00,VALID,919.723,VALID,0,VALID,98.2391,VALID,-0.101885,VALID,20.2492,VALID,149,VALID,0.965794,
2002-04-01, 00:50:00,VALID,919.705,VALID,0,VALID,98.2696,VALID,-0.101885,VALID,20.2357,VALID,156,VALID,1.04117,
2002-04-01, 00:51:00,VALID,919.687,VALID,0,VALID,98.3344,VALID,-0.0849042,VALID,20.2459,VALID,153,VALID,0.577902,
2002-04-01, 00:52:00,VALID,919.666,VALID,0,VALID,98.3484,VALID,-0.101885,VALID,20.2425,VALID,148,VALID,0.964433,
2002-04-01, 00:53:00,VALID,919.651,VALID,0,VALID,98.3497,VALID,-0.0849042,VALID,20.2226,VALID,145,VALID,1.20481,
2002-04-01, 00:54:00,VALID,919.627,VALID,0.2,VALID,98.379,VALID,-0.101885,VALID,20.2295,VALID,147,VALID,1.27039,
2002-04-01, 00:55:00,VALID,919.623,VALID,0,VALID,98.4286,VALID,-0.118866,VALID,20.2104,VALID,150,VALID,1.12012,
2002-04-01, 00:56:00,VALID,919.62,VALID,0,VALID,98.4565,VALID,-0.0169808,VALID,20.1863,VALID,132,VALID,0.879523,
2002-04-01, 00:57:00,VALID,919.594,VALID,0,VALID,98.487,VALID,0.0169808,VALID,20.1825,VALID,157,VALID,1.07751,
2002-04-01, 00:58:00,VALID,919.58,VALID,0,VALID,98.5265,VALID,0,VALID,20.1696,VALID,153,VALID,1.00879,
2002-04-01, 00:59:00,VALID,919.571,VALID,0,VALID,98.5366,VALID,0,VALID,20.1634,VALID,156,VALID,0.801082,
2002-04-01, 01:00:00,VALID,919.572,VALID,0,VALID,98.5672,VALID,0.0339617,VALID,20.1706,VALID,150,VALID,1.02277,
2002-04-01, 01:01:00,VALID,919.551,VALID,0,VALID,98.5824,VALID,0.0169808,VALID,20.1535,VALID,163,VALID,0.801562,
2002-04-01, 01:02:00,VALID,919.535,VALID,0,VALID,98.6104,VALID,0,VALID,20.1542,VALID,146,VALID,0.833984,
2002-04-01, 01:03:00,VALID,919.516,VALID,0,VALID,98.6066,VALID,0.0169808,VALID,20.1507,VALID,163,VALID,1.14648,
2002-04-01, 01:04:00,VALID,919.512,VALID,0,VALID,98.6231,VALID,0,VALID,20.1346,VALID,135,VALID,0.671074,
2002-04-01, 01:05:00,VALID,919.501,VALID,0,VALID,98.646,VALID,0,VALID,20.1284,VALID,155,VALID,0.711554,
2002-04-01, 01:06:00,VALID,919.499,VALID,0,VALID,98.6714,VALID,0.0169808,VALID,20.1246,VALID,141,VALID,0.587171,
2002-04-01, 01:07:00,VALID,919.486,VALID,0,VALID,98.6803,VALID,0,VALID,20.1211,VALID,122,VALID,0.453758,
2002-04-01, 01:08:00,VALID,919.471,VALID,0,VALID,98.6778,VALID,0.0339617,VALID,20.112,VALID,104,VALID,0.792318,
2002-04-01, 01:09:00,VALID,919.458,VALID,0,VALID,98.6702,VALID,0,VALID,20.112,VALID,115,VALID,0.719595,
2002-04-01, 01:10:00,VALID,919.451,VALID,0,VALID,98.7172,VALID,0,VALID,20.102,VALID,109,VALID,0.432977,
2002-04-01, 01:11:00,VALID,919.453,VALID,0,VALID,98.7426,VALID,0,VALID,20.112,VALID,121,VALID,0.383614,
2002-04-01, 01:12:00,VALID,919.447,VALID,0,VALID,98.7414,VALID,0.0339617,VALID,20.1085,VALID,150,VALID,0.850361,
2002-04-01, 01:13:00,VALID,919.44,VALID,0,VALID,98.7274,VALID,0,VALID,20.1058,VALID,146,VALID,0.90815,
2002-04-01, 01:14:00,VALID,919.434,VALID,0,VALID,98.7261,VALID,0.0169808,VALID,20.0923,VALID,142,VALID,0.476768,
2002-04-01, 01:15:00,VALID,919.417,VALID,0,VALID,98.7465,VALID,0,VALID,20.099,VALID,120,VALID,0.750401,
2002-04-01, 01:16:00,VALID,919.396,VALID,0,VALID,98.7185,VALID,0.0169808,VALID,20.0861,VALID,108,VALID,0.697316,
2002-04-01, 01:17:00,VALID,919.368,VALID,0,VALID,98.7197,VALID,0.0509425,VALID,20.0735,VALID,100,VALID,0.632813,
2002-04-01, 01:18:00,VALID,919.359,VALID,0,VALID,98.735,VALID,0,VALID,20.0831,VALID,130,VALID,0.582648,
2002-04-01, 01:19:00,VALID,919.345,VALID,0,VALID,98.7465,VALID,0,VALID,20.0695,VALID,114,VALID,0.135135,
2002-04-01, 01:20:00,VALID,919.344,VALID,0,VALID,98.7426,VALID,0.0169808,VALID,20.0864,VALID,129,VALID,0.426215,
2002-04-01, 01:21:00,VALID,919.33,VALID,0,VALID,98.7325,VALID,0,VALID,20.0899,VALID,128,VALID,0.26237,
2002-04-01, 01:22:00,VALID,919.329,VALID,0,VALID,98.7375,VALID,0.0339617,VALID,20.0859,VALID,143,VALID,0.432771,
2002-04-01, 01:23:00,VALID,919.317,VALID,0,VALID,98.7197,VALID,0,VALID,20.1025,VALID,145,VALID,0.844172,
2002-04-01, 01:24:00,VALID,919.305,VALID,0,VALID,98.7007,VALID,0.0169808,VALID,20.0861,VALID,151,VALID,0.811161,
2002-04-01, 01:25:00,VALID,919.299,VALID,0,VALID,98.7058,VALID,0.0169808,VALID,20.0829,VALID,151,VALID,1.18482,
2002-04-01, 01:26:00,VALID,919.273,VALID,0,VALID,98.6943,VALID,0.0169808,VALID,20.0826,VALID,149,VALID,0.987253,
2002-04-01, 01:27:00,VALID,919.268,VALID,0,VALID,98.6854,VALID,0.0169808,VALID,20.0896,VALID,138,VALID,1.07993,
2002-04-01, 01:28:00,VALID,919.249,VALID,0,VALID,98.6956,VALID,0.0169808,VALID,20.0831,VALID,128,VALID,0.707617,
2002-04-01, 01:29:00,VALID,919.248,VALID,0,VALID,98.6994,VALID,0,VALID,20.0627,VALID,134,VALID,0.541941,
2002-04-01, 01:30:00,VALID,919.25,VALID,0,VALID,98.7083,VALID,0,VALID,20.0727,VALID,141,VALID,0.720017,
2002-04-01, 01:31:00,VALID,919.233,VALID,0,VALID,98.7134,VALID,0.0339617,VALID,20.0729,VALID,119,VALID,0.114784,
2002-04-01, 01:32:00,VALID,919.226,VALID,0,VALID,98.7287,VALID,0.0169808,VALID,20.0757,VALID,117,VALID,0.236178,
2002-04-01, 01:33:00,VALID,919.218,VALID,0,VALID,98.688,VALID,0.0169808,VALID,20.0767,VALID,104,VALID,0.420072,
2002-04-01, 01:34:00,VALID,919.206,VALID,0,VALID,98.6905,VALID,0.0339617,VALID,20.063,VALID,97,VALID,0.317187,
2002-04-01, 01:35:00,VALID,919.198,VALID,0,VALID,98.7134,VALID,0.0169808,VALID,20.0633,VALID,63,VALID,0.538281,
2002-04-01, 01:36:00,VALID,919.185,VALID,0,VALID,98.7274,VALID,0,VALID,20.07,VALID,61,VALID,0.692274,
2002-04-01, 01:37:00,VALID,919.173,VALID,0,VALID,98.7261,VALID,0.0169808,VALID,20.0831,VALID,44,VALID,0.833767,
2002-04-01, 01:38:00,VALID,919.151,VALID,0,VALID,98.7337,VALID,0,VALID,20.0735,VALID,46,VALID,0.977407,
2002-04-01, 01:39:00,VALID,919.137,VALID,0,VALID,98.7337,VALID,0,VALID,20.0732,VALID,45,VALID,1.25164,
2002-04-01, 01:40:00,VALID,919.115,VALID,0,VALID,98.7058,VALID,0,VALID,20.0506,VALID,46,VALID,1.20334,
2002-04-01, 01:41:00,VALID,919.095,VALID,0,VALID,98.7096,VALID,0,VALID,20.0538,VALID,47,VALID,1.15899,
2002-04-01, 01:42:00,VALID,919.07,VALID,0,VALID,98.7121,VALID,0,VALID,20.0409,VALID,42,VALID,0.895982,
2002-04-01, 01:43:00,VALID,919.047,VALID,0,VALID,98.7159,VALID,0,VALID,20.0277,VALID,52,VALID,0.848479,
2002-04-01, 01:44:00,VALID,919.023,VALID,0,VALID,98.7299,VALID,0,VALID,20.0347,VALID,49,VALID,0.949324,
2002-04-01, 01:45:00,VALID,919.007,VALID,0,VALID,98.7337,VALID,0,VALID,20.0183,VALID,47,VALID,0.976944,
2002-04-01, 01:46:00,VALID,918.973,VALID,0,VALID,98.735,VALID,0,VALID,20.0118,VALID,59,VALID,0.708789,
2002-04-01, 01:47:01,VALID,918.958,VALID,0,VALID,98.7439,VALID,0.0169808,VALID,20.0021,VALID,70,VALID,0.499794,
2002-04-01, 01:48:00,VALID,918.94,VALID,0,VALID,98.7401,VALID,0.0169808,VALID,19.9952,VALID,70,VALID,0.212993,
2002-04-01, 01:49:00,VALID,918.92,VALID,0,VALID,98.7528,VALID,0.0169808,VALID,19.9991,VALID,70,VALID,0.233008,
2002-04-01, 01:50:00,VALID,918.879,VALID,0.2,VALID,98.7592,VALID,0,VALID,19.9959,VALID,94,VALID,0.506811,
2002-04-01, 01:51:01,VALID,918.864,VALID,0,VALID,98.7236,VALID,0.0169808,VALID,19.9731,VALID,80,VALID,0.427902,
2002-04-01, 01:52:00,VALID,918.823,VALID,0,VALID,98.7274,VALID,0,VALID,19.9663,VALID,71,VALID,0.475781,
2002-04-01, 01:53:00,VALID,918.776,VALID,0,VALID,98.7515,VALID,0.0339617,VALID,19.9564,VALID,73,VALID,0.597873,
2002-04-01, 01:54:01,VALID,918.736,VALID,0,VALID,98.7528,VALID,0.0169808,VALID,19.9537,VALID,76,VALID,0.757378,
2002-04-01, 01:55:01,VALID,918.704,VALID,0,VALID,98.7604,VALID,0.0509425,VALID,19.947,VALID,70,VALID,0.597756,
2002-04-01, 01:56:00,VALID,918.677,VALID,0,VALID,98.777,VALID,0.0169808,VALID,19.9504,VALID,61,VALID,0.504317,
2002-04-01, 01:57:00,VALID,918.663,VALID,0,VALID,98.7795,VALID,0.0169808,VALID,19.9472,VALID,53,VALID,0.293997,
2002-04-01, 01:58:00,VALID,918.649,VALID,0,VALID,98.8062,VALID,0.0339617,VALID,19.9537,VALID,41,VALID,0.378378,
2002-04-01, 01:59:00,VALID,918.639,VALID,0,VALID,98.8113,VALID,0.0169808,VALID,19.9733,VALID,28,VALID,0.5102,
2002-04-01, 02:00:00,VALID,918.617,VALID,0,VALID,98.81,VALID,0,VALID,19.9601,VALID,27,VALID,0.627745,
2002-04-01, 02:01:00,VALID,918.594,VALID,0,VALID,98.7935,VALID,0,VALID,19.937,VALID,38,VALID,0.865748,
2002-04-01, 02:02:01,VALID,918.576,VALID,0,VALID,98.8088,VALID,0,VALID,19.9472,VALID,38,VALID,0.674479,
2002-04-01, 02:03:00,VALID,918.548,VALID,0,VALID,98.8049,VALID,0.0339617,VALID,19.9437,VALID,53,VALID,0.840946,
2002-04-01, 02:04:01,VALID,918.524,VALID,0,VALID,98.7871,VALID,0,VALID,19.9313,VALID,58,VALID,1.02872,
2002-04-01, 02:05:00,VALID,918.5,VALID,0,VALID,98.7859,VALID,0.0339617,VALID,19.9149,VALID,43,VALID,1.11534,
2002-04-01, 02:06:00,VALID,918.466,VALID,0,VALID,98.7999,VALID,0,VALID,19.8983,VALID,44,VALID,1.05649,
2002-04-01, 02:07:00,VALID,918.431,VALID,0,VALID,98.8151,VALID,0.0169808,VALID,19.9022,VALID,47,VALID,1.01703,
2002-04-01, 02:08:00,VALID,918.415,VALID,0,VALID,98.8151,VALID,0.0509425,VALID,19.8891,VALID,55,VALID,1.26103,
2002-04-01, 02:09:00,VALID,918.389,VALID,0,VALID,98.8189,VALID,0.0509425,VALID,19.8662,VALID,54,VALID,1.00576,
2002-04-01, 02:10:00,VALID,918.365,VALID,0,VALID,98.8253,VALID,0.0169808,VALID,19.8759,VALID,44,VALID,0.883446,
2002-04-01, 02:11:00,VALID,918.345,VALID,0,VALID,98.8367,VALID,0.0169808,VALID,19.8665,VALID,38,VALID,1.03602,
2002-04-01, 02:12:00,VALID,918.327,VALID,0,VALID,98.8393,VALID,0,VALID,19.8632,VALID,20,VALID,1.04579,
2002-04-01, 02:13:00,VALID,918.339,VALID,0,VALID,98.8584,VALID,0.0339617,VALID,19.8665,VALID,19,VALID,0.898643,
2002-04-01, 02:14:01,VALID,918.353,VALID,0.2,VALID,98.8711,VALID,0,VALID,19.8667,VALID,6,VALID,0.42652,
2002-04-01, 02:15:00,VALID,918.372,VALID,0,VALID,98.8876,VALID,0,VALID,19.8732,VALID,358,VALID,0.390848,
2002-04-01, 02:16:00,VALID,918.369,VALID,0,VALID,98.88,VALID,0,VALID,19.8769,VALID,1,VALID,0.678795,
2002-04-01, 02:17:00,VALID,918.365,VALID,0,VALID,98.8736,VALID,0.0509425,VALID,19.8503,VALID,8,VALID,0.574219,
2002-04-01, 02:18:01,VALID,918.362,VALID,0,VALID,98.8901,VALID,0.0339617,VALID,19.8538,VALID,8,VALID,0.473758,
2002-04-01, 02:19:00,VALID,918.362,VALID,0,VALID,98.9016,VALID,0.0169808,VALID,19.8538,VALID,33,VALID,0.455859,
2002-04-01, 02:20:00,VALID,918.351,VALID,0,VALID,98.9219,VALID,0.0169808,VALID,19.8665,VALID,36,VALID,0.328947,
2002-04-01, 02:21:00,VALID,918.33,VALID,0,VALID,98.9054,VALID,0,VALID,19.8699,VALID,58,VALID,0.386613,
2002-04-01, 02:22:00,VALID,918.315,VALID,0,VALID,98.8749,VALID,0.0339617,VALID,19.8406,VALID,72,VALID,0.409255,
2002-04-01, 02:23:01,VALID,918.299,VALID,0,VALID,98.866,VALID,0,VALID,19.8083,VALID,99,VALID,0.284054,
2002-04-01, 02:24:00,VALID,918.283,VALID,0,VALID,98.8673,VALID,0.0509425,VALID,19.8086,VALID,114,VALID,0.464343,
2002-04-01, 02:25:01,VALID,918.263,VALID,0,VALID,98.8545,VALID,0.0679233,VALID,19.7763,VALID,114,VALID,0.61317,
2002-04-01, 02:26:00,VALID,918.258,VALID,0,VALID,98.9016,VALID,0.0339617,VALID,19.7795,VALID,118,VALID,0.85332,
2002-04-01, 02:27:00,VALID,918.255,VALID,0,VALID,98.9258,VALID,0,VALID,19.7892,VALID,136,VALID,0.762587,
2002-04-01, 02:28:01,VALID,918.225,VALID,0,VALID,98.955,VALID,0,VALID,19.8023,VALID,138,VALID,0.431207,
2002-04-01, 02:29:00,VALID,918.223,VALID,0,VALID,98.9766,VALID,0,VALID,19.8113,VALID,134,VALID,0.275549,
2002-04-01, 02:30:01,VALID,918.211,VALID,0,VALID,98.9855,VALID,0,VALID,19.8314,VALID,137,VALID,0.556538,
2002-04-01, 02:31:00,VALID,918.209,VALID,0,VALID,98.9652,VALID,0.0169808,VALID,19.8279,VALID,148,VALID,0.453336,
2002-04-01, 02:32:00,VALID,918.203,VALID,0,VALID,98.9766,VALID,0.0169808,VALID,19.8279,VALID,101,VALID,0.361064,
2002-04-01, 02:33:00,VALID,918.2,VALID,0,VALID,98.9715,VALID,0.0169808,VALID,19.8277,VALID,137,VALID,0.712946,
2002-04-01, 02:34:00,VALID,918.192,VALID,0,VALID,98.9906,VALID,0.0169808,VALID,19.8245,VALID,135,VALID,0.604852,
2002-04-01, 02:35:01,VALID,918.209,VALID,0,VALID,98.9931,VALID,0,VALID,19.8374,VALID,145,VALID,0.701858,
2002-04-01, 02:36:01,VALID,918.212,VALID,0,VALID,98.9906,VALID,0,VALID,19.8443,VALID,147,VALID,0.617378,
2002-04-01, 02:37:00,VALID,918.226,VALID,0,VALID,98.9931,VALID,0.0339617,VALID,19.8441,VALID,169,VALID,0.474414,
2002-04-01, 02:38:01,VALID,918.245,VALID,0,VALID,98.9931,VALID,0.0169808,VALID,19.8473,VALID,154,VALID,0.399465,
2002-04-01, 02:39:00,VALID,918.256,VALID,0,VALID,98.9982,VALID,0.0169808,VALID,19.8404,VALID,166,VALID,0.642064,
2002-04-01, 02:40:00,VALID,918.275,VALID,0,VALID,99.0033,VALID,0.0169808,VALID,19.8374,VALID,172,VALID,0.321875,
2002-04-01, 02:41:00,VALID,918.293,VALID,0,VALID,98.9982,VALID,0,VALID,19.8446,VALID,187,VALID,0.233173,
2002-04-01, 02:42:01,VALID,918.321,VALID,0,VALID,99.0008,VALID,0.0169808,VALID,19.8473,VALID,194,VALID,0.205804,
2002-04-01, 02:43:00,VALID,918.334,VALID,0,VALID,99.0046,VALID,0.0509425,VALID,19.857,VALID,194,VALID,0.114063,
2002-04-01, 02:44:00,VALID,918.357,VALID,0,VALID,99.0046,VALID,0.0169808,VALID,19.8476,VALID,194,VALID,0.201389,
2002-04-01, 02:45:01,VALID,918.361,VALID,0,VALID,99.0008,VALID,0,VALID,19.8344,VALID,194,VALID,0.015625,
2002-04-01, 02:46:01,VALID,918.376,VALID,0,VALID,98.9881,VALID,-0.0169808,VALID,19.8349,VALID,194,VALID,0,
2002-04-01, 02:47:00,VALID,918.399,VALID,0,VALID,99.002,VALID,0,VALID,19.8347,VALID,194,VALID,0.00370066,
2002-04-01, 02:48:01,VALID,918.404,VALID,0,VALID,98.9792,VALID,0.0339617,VALID,19.8279,VALID,164,VALID,0.398438,
2002-04-01, 02:49:00,VALID,918.411,VALID,0,VALID,98.9779,VALID,0,VALID,19.812,VALID,156,VALID,0.323902,
2002-04-01, 02:50:00,VALID,918.433,VALID,0,VALID,98.9931,VALID,0.0169808,VALID,19.8086,VALID,156,VALID,0.00325521,
2002-04-01, 02:51:00,VALID,918.435,VALID,0,VALID,99.0008,VALID,0.0169808,VALID,19.815,VALID,118,VALID,0.34565,
2002-04-01, 02:52:00,VALID,918.45,VALID,0,VALID,98.9919,VALID,0.0339617,VALID,19.8018,VALID,103,VALID,0.417763,
2002-04-01, 02:53:01,VALID,918.444,VALID,0,VALID,98.9893,VALID,0,VALID,19.7956,VALID,122,VALID,0.517027,
2002-04-01, 02:54:00,VALID,918.438,VALID,0,VALID,98.9779,VALID,0,VALID,19.7566,VALID,120,VALID,0.604367,
2002-04-01, 02:55:01,VALID,918.437,VALID,0,VALID,98.9703,VALID,0,VALID,19.7504,VALID,100,VALID,0.586571,
2002-04-01, 02:56:00,VALID,918.437,VALID,0,VALID,98.9664,VALID,-0.0509425,VALID,19.7288,VALID,99,VALID,0.640831,
2002-04-01, 02:57:00,VALID,918.428,VALID,0,VALID,98.9817,VALID,-0.101885,VALID,19.7266,VALID,98,VALID,0.790865,
2002-04-01, 02:58:00,VALID,918.435,VALID,0,VALID,98.9792,VALID,-0.101885,VALID,19.7236,VALID,100,VALID,0.690705,
2002-04-01, 02:59:00,VALID,918.428,VALID,0,VALID,98.9817,VALID,-0.118866,VALID,19.7067,VALID,114,VALID,0.735064,
2002-04-01, 03:00:00,VALID,918.436,VALID,0,VALID,99.002,VALID,-0.0849042,VALID,19.7099,VALID,123,VALID,0.611431,
2002-04-01, 03:01:00,VALID,918.451,VALID,0,VALID,99.0122,VALID,-0.101885,VALID,19.7134,VALID,136,VALID,0.584671,
2002-04-01, 03:02:00,VALID,918.453,VALID,0,VALID,99.0249,VALID,-0.0849042,VALID,19.7263,VALID,129,VALID,0.54579,
2002-04-01, 03:03:00,VALID,918.476,VALID,0,VALID,99.0313,VALID,-0.0849042,VALID,19.729,VALID,132,VALID,0.467882,
2002-04-01, 03:04:00,VALID,918.483,VALID,0,VALID,99.0122,VALID,-0.101885,VALID,19.7358,VALID,132,VALID,0.760485,
2002-04-01, 03:05:01,VALID,918.485,VALID,0,VALID,99.0084,VALID,-0.0849042,VALID,19.7363,VALID,146,VALID,0.708615,
2002-04-01, 03:06:00,VALID,918.507,VALID,0,VALID,99.0084,VALID,-0.118866,VALID,19.7228,VALID,144,VALID,1.20045,
2002-04-01, 03:07:00,VALID,918.514,VALID,0,VALID,99.002,VALID,-0.101885,VALID,19.7333,VALID,142,VALID,1.28527,
2002-04-01, 03:08:00,VALID,918.519,VALID,0,VALID,99.0109,VALID,-0.101885,VALID,19.7293,VALID,145,VALID,1.50103,
2002-04-01, 03:09:01,VALID,918.522,VALID,0,VALID,98.9995,VALID,-0.0849042,VALID,19.7266,VALID,145,VALID,1.36979,
2002-04-01, 03:10:00,VALID,918.526,VALID,0,VALID,98.997,VALID,-0.101885,VALID,19.7231,VALID,144,VALID,1.28803,
2002-04-01, 03:11:00,VALID,918.526,VALID,0,VALID,98.9944,VALID,-0.0509425,VALID,19.7258,VALID,147,VALID,1.26234,
2002-04-01, 03:12:00,VALID,918.528,VALID,0,VALID,98.9919,VALID,-0.0169808,VALID,19.7246,VALID,151,VALID,0.827492,
2002-04-01, 03:13:01,VALID,918.53,VALID,0,VALID,98.9906,VALID,0.0169808,VALID,19.7181,VALID,154,VALID,0.969351,
2002-04-01, 03:14:01,VALID,918.527,VALID,0,VALID,98.997,VALID,0,VALID,19.7251,VALID,145,VALID,0.586739,
2002-04-01, 03:15:00,VALID,918.533,VALID,0,VALID,98.9982,VALID,0,VALID,19.7345,VALID,119,VALID,0.0709135,
2002-04-01, 03:16:01,VALID,918.539,VALID,0,VALID,98.9957,VALID,0,VALID,19.741,VALID,128,VALID,0.184598,
2002-04-01, 03:17:00,VALID,918.548,VALID,0,VALID,98.9893,VALID,0,VALID,19.7343,VALID,152,VALID,0.444141,
2002-04-01, 03:18:00,VALID,918.562,VALID,0,VALID,98.9995,VALID,0.0169808,VALID,19.7474,VALID,48,VALID,0.0794271,
2002-04-01, 03:19:01,VALID,918.585,VALID,0,VALID,98.9881,VALID,-0.0169808,VALID,19.7504,VALID,71,VALID,0.238498,
2002-04-01, 03:20:00,VALID,918.585,VALID,0,VALID,98.9728,VALID,0,VALID,19.7514,VALID,87,VALID,0.0464527,
2002-04-01, 03:21:01,VALID,918.607,VALID,0,VALID,98.983,VALID,0,VALID,19.7474,VALID,86,VALID,0.156867,
2002-04-01, 03:22:00,VALID,918.631,VALID,0,VALID,98.9779,VALID,0,VALID,19.7636,VALID,60,VALID,0.521326,
2002-04-01, 03:23:00,VALID,918.645,VALID,0,VALID,98.9842,VALID,0,VALID,19.7566,VALID,40,VALID,0.475084,
2002-04-01, 03:24:01,VALID,918.664,VALID,0,VALID,98.9868,VALID,0,VALID,19.7666,VALID,24,VALID,0.591964,
2002-04-01, 03:25:01,VALID,918.697,VALID,0,VALID,98.9804,VALID,0.0169808,VALID,19.7663,VALID,22,VALID,0.660979,
2002-04-01, 03:26:01,VALID,918.709,VALID,0,VALID,98.9652,VALID,-0.0509425,VALID,19.7708,VALID,13,VALID,0.811867,
2002-04-01, 03:27:01,VALID,918.716,VALID,0,VALID,98.9677,VALID,-0.101885,VALID,19.7651,VALID,11,VALID,0.856898,
2002-04-01, 03:28:01,VALID,918.734,VALID,0,VALID,98.9614,VALID,-0.0849042,VALID,19.7494,VALID,8,VALID,0.821289,
2002-04-01, 03:29:01,VALID,918.741,VALID,0,VALID,98.9486,VALID,-0.101885,VALID,19.7263,VALID,9,VALID,0.70477,
2002-04-01, 03:30:00,VALID,918.756,VALID,0,VALID,98.9397,VALID,-0.0849042,VALID,19.7141,VALID,8,VALID,0.714433,
2002-04-01, 03:31:01,VALID,918.768,VALID,0,VALID,98.9397,VALID,-0.118866,VALID,19.7136,VALID,8,VALID,0.736133,
2002-04-01, 03:32:00,VALID,918.771,VALID,0,VALID,98.9537,VALID,-0.118866,VALID,19.7044,VALID,19,VALID,0.702524,
2002-04-01, 03:33:01,VALID,918.764,VALID,0,VALID,98.9525,VALID,-0.101885,VALID,19.7007,VALID,11,VALID,0.605357,
2002-04-01, 03:34:01,VALID,918.751,VALID,0,VALID,98.9677,VALID,-0.101885,VALID,19.7037,VALID,29,VALID,0.585352,